1484816400.31,44119,6.38,74006.5,-6.17,-44.41,-45.21,0,*5E
1484816401.57,44120,6.38,74008.0,-6.19,-46.07,-46.75,0,*58
1484816402.81,44121,6.38,74020.5,-6.19,-46.35,-47.17,0,*5D
1484816404.05,44122,6.38,74022.0,-6.23,-45.61,-46.35,0,*54
1484816405.27,44123,6.38,74016.0,-6.21,-44.07,-44.67,0,*53
1484816406.53,44124,6.38,74022.5,-6.23,-43.75,-44.33,0,*55
1484816407.77,44125,6.38,74022.0,-6.19,-43.61,-44.27,0,*5D
1484816409.03,44126,6.38,74026.8,-6.21,-44.21,-44.67,0,*52
1484816410.26,44127,6.38,74018.3,-6.21,-43.55,-44.27,0,*53
1484816411.49,44128,6.38,74022.3,-6.21,-43.55,-44.07,0,*5E
1484816412.7,44129,6.38,74020.5,-6.21,-44.07,-44.87,0,*57
1484816413.9,44130,6.38,74020.3,-6.21,-43.87,-44.41,0,*5A
1484816415.11,44131,6.38,74016.8,-6.21,-43.87,-44.61,0,*59
1484816416.37,44132,6.38,74020.0,-6.19,-43.55,-44.07,0,*5E
1484816417.61,44133,6.38,74016.0,-6.19,-43.41,-44.07,0,*5A
1484816418.86,44134,6.38,74014.5,-6.19,-43.87,-44.47,0,*53
1484816420.09,44135,6.38,74008.8,-6.19,-44.07,-44.61,0,*59
1484816421.36,44136,6.38,74012.8,-6.19,-44.01,-44.87,0,*54
1484816422.6,44137,6.38,74018.8,-6.19,-44.27,-44.99,0,*5E
1484816423.83,44138,6.38,74010.3,-6.17,-44.67,-45.41,0,*5F
1484816425.07,44139,6.38,74008.5,-6.19,-44.61,-45.13,0,*51
1484816426.33,44140,6.38,74012.8,-6.19,-44.41,-45.27,0,*5A
1484816427.6,44141,6.38,74008.0,-6.19,-44.87,-45.73,0,*50
1484816428.84,44142,6.38,74010.8,-6.21,-45.27,-45.87,0,*58
1484816430.06,44143,6.38,74010.8,-6.21,-44.87,-45.67,0,*5C
1484816431.28,44144,6.38,74010.3,-6.21,-44.79,-45.53,0,*5D
1484816432.54,44145,6.38,74016.3,-6.21,-45.47,-46.15,0,*51
1484816433.79,44146,6.38,74016.0,-6.23,-44.87,-45.53,0,*5C
1484816435.06,44147,6.38,74020.8,-6.23,-44.93,-45.53,0,*58
1484816436.33,44148,6.38,74012.3,-6.23,-45.07,-45.61,0,*5A
1484816437.6,44149,6.38,74018.3,-6.23,-44.27,-44.93,0,*54
1484816438.83,44150,6.38,74014.8,-6.25,-44.13,-44.87,0,*58
1484816440.08,44151,6.38,74016.5,-6.25,-44.73,-45.53,0,*57
1484816441.35,44152,6.38,74020.3,-6.23,-45.53,-46.41,0,*51
1484816442.59,44153,6.38,74022.0,-6.25,-44.27,-44.93,0,*59
1484816443.86,44154,6.38,74016.5,-6.23,-44.73,-45.21,0,*51
1484816445.12,44155,6.38,74018.5,-6.23,-44.07,-45.07,0,*57
1484816446.35,44156,6.38,74012.0,-6.25,-44.07,-44.73,0,*50
1484816447.61,44157,6.38,74012.0,-6.23,-44.07,-44.73,0,*57
1484816448.87,44158,6.38,74014.8,-6.23,-43.49,-44.13,0,*53
1484816450.16,44159,6.38,74016.0,-6.23,-43.67,-44.33,0,*5C
1484816451.42,44160,6.38,74014.8,-6.23,-43.61,-44.33,0,*50
1484816452.68,44161,6.38,74014.3,-6.23,-43.41,-44.13,0,*51
1484816453.93,44162,6.38,74012.3,-6.21,-44.47,-45.07,0,*55
1484816455.2,44163,6.38,74010.5,-6.23,-44.27,-44.73,0,*52
1484816456.43,44164,6.38,74012.8,-6.21,-43.55,-44.07,0,*56
1484816457.63,44165,6.38,74016.0,-6.21,-43.87,-44.61,0,*58
1484816458.86,44166,6.38,74020.0,-6.21,-44.47,-45.13,0,*54
1484816460.15,44167,6.38,74020.3,-6.19,-44.67,-45.27,0,*5B
1484816461.4,44168,6.38,74020.5,-6.23,-43.87,-44.47,0,*53
1484816462.61,44169,6.38,74016.3,-6.21,-43.41,-44.07,0,*5E
1484816463.82,44170,6.38,74028.3,-6.21,-43.41,-44.07,0,*56
1484816465.02,44171,6.38,74026.3,-6.21,-43.15,-43.61,0,*51
1484816466.28,44172,6.38,74026.8,-6.21,-43.55,-44.21,0,*55
1484816467.55,44173,6.38,74026.3,-6.17,-43.09,-43.55,0,*5C
1484816468.81,44174,6.38,74030.0,-6.19,-43.41,-44.01,0,*5F
1484816470.02,44175,6.38,74024.3,-6.17,-43.35,-43.95,0,*59
1484816471.28,44176,6.38,74026.0,-6.17,-42.95,-43.55,0,*5D
1484816472.5,44177,6.38,74020.5,-6.13,-43.41,-44.07,0,*50
1484816473.73,44178,6.38,74012.3,-6.13,-43.55,-44.27,0,*58
1484816474.97,44179,6.38,74004.8,-6.13,-43.41,-44.13,0,*5B
1484816476.19,44180,6.38,74008.5,-6.13,-43.87,-44.47,0,*56
1484816477.43,44181,6.38,74002.3,-6.13,-44.67,-45.53,0,*5A
1484816478.66,44182,6.38,74000.8,-6.13,-44.33,-44.99,0,*5F
1484816479.87,44183,6.38,74006.0,-6.13,-45.13,-45.95,0,*50
1484816481.14,44184,6.38,74008.8,-6.19,-45.33,-46.07,0,*57
1484816482.4,44185,6.38,74016.0,-6.17,-45.47,-46.27,0,*59
1484816483.68,44186,6.38,74016.3,-6.19,-44.67,-45.27,0,*54
1484816484.95,44187,6.38,74026.5,-6.19,-44.61,-45.27,0,*53
1484816486.18,44188,6.38,74018.5,-6.17,-43.81,-44.41,0,*5A
1484816487.41,44189,6.38,74016.3,-6.17,-43.49,-44.13,0,*58
1484816488.64,44190,6.38,74004.3,-6.17,-44.01,-44.79,0,*57
1484816489.9,44191,6.38,74000.8,-6.19,-44.67,-45.33,0,*57
1484816491.2,44192,6.38,74012.3,-6.19,-45.07,-45.73,0,*57
1484816492.5,44193,6.38,74000.8,-6.19,-45.27,-46.07,0,*54
1484816493.74,44194,6.38,74000.5,-6.19,-44.87,-45.67,0,*5D
1484816494.98,44195,6.38,74004.8,-6.23,-45.13,-45.53,0,*5E
1484816496.19,44196,6.38,74006.8,-6.21,-44.07,-44.79,0,*52
1484816497.42,44197,6.38,74006.8,-6.21,-44.01,-44.79,0,*55
1484816498.65,44198,6.38,73994.5,-6.21,-44.13,-44.61,0,*50
1484816499.88,44199,6.38,73998.3,-6.21,-45.95,-46.61,0,*5C
1484816501.14,44200,6.38,74000.0,-6.23,-45.95,-46.69,0,*55
1484816502.39,44201,6.38,74006.3,-6.23,-46.69,-47.51,0,*5E
1484816503.64,44202,6.38,74010.0,-6.23,-44.87,-45.53,0,*5F
1484816504.87,44203,6.38,74012.3,-6.29,-44.53,-45.13,0,*59
1484816506.13,44204,6.38,74010.8,-6.25,-43.67,-44.33,0,*51
1484816507.39,44205,6.38,74012.0,-6.23,-43.49,-44.13,0,*58
1484816508.62,44206,6.38,74016.5,-6.23,-43.95,-44.53,0,*5E
1484816509.85,44207,6.38,74010.8,-6.23,-43.75,-44.27,0,*52
1484816511.09,44208,6.38,73994.5,-6.23,-44.53,-45.21,0,*59
1484816512.37,44209,6.38,73990.8,-6.23,-45.81,-46.89,0,*57
1484816513.63,44210,6.38,73998.8,-6.23,-46.49,-47.09,0,*51
1484816514.87,44211,6.38,74006.3,-6.29,-46.97,-47.85,0,*5D
1484816516.15,44212,6.38,74010.3,-6.29,-46.07,-46.49,0,*56
1484816517.41,44213,6.38,74010.3,-6.31,-44.21,-44.93,0,*5D
1484816518.66,44214,6.38,74014.0,-6.31,-43.67,-44.13,0,*57
1484816519.89,44215,6.38,74010.8,-6.31,-43.81,-44.53,0,*5A
1484816521.13,44216,6.38,74010.5,-6.29,-44.13,-44.99,0,*5A
1484816522.39,44217,6.38,74008.0,-6.29,-44.61,-45.27,0,*5A
1484816523.62,44218,6.38,74004.5,-6.29,-46.01,-46.75,0,*55
1484816524.88,44219,6.38,74000.3,-6.29,-45.27,-45.87,0,*5D
1484816526.11,44220,6.38,73998.8,-6.31,-45.61,-46.41,0,*55
1484816527.35,44221,6.38,74000.0,-6.33,-45.21,-45.87,0,*5B
1484816528.58,44222,6.38,74000.5,-6.33,-45.67,-46.35,0,*50
1484816529.84,44223,6.38,74002.8,-6.33,-46.55,-47.23,0,*55
1484816531.11,44224,6.38,74004.5,-6.35,-45.07,-46.07,0,*57
1484816532.37,44225,6.38,74012.5,-6.37,-44.93,-45.53,0,*5A
1484816533.64,44226,6.38,74012.8,-6.37,-44.33,-45.07,0,*52
1484816534.85,44227,6.38,74018.0,-6.35,-43.61,-44.41,0,*52
1484816536.09,44228,6.38,74016.5,-6.35,-44.21,-44.87,0,*54
1484816537.36,44229,6.38,74018.5,-6.33,-43.21,-43.81,0,*55
1484816538.59,44230,6.38,74016.5,-6.33,-43.15,-43.75,0,*51
1484816539.82,44231,6.38,74012.0,-6.31,-42.89,-43.55,0,*54
1484816541.05,44232,6.38,74006.0,-6.31,-43.49,-44.13,0,*5F
1484816542.27,44233,6.38,74006.3,-6.31,-44.13,-44.99,0,*54
1484816543.5,44234,6.38,74012.3,-6.31,-43.67,-44.53,0,*51
1484816544.72,44235,6.38,74022.5,-6.29,-43.95,-44.61,0,*55
1484816545.97,44236,6.38,74018.3,-6.29,-43.81,-44.53,0,*52
1484816547.21,44237,6.38,74016.8,-6.25,-43.29,-43.95,0,*50
1484816548.46,44238,6.38,74014.5,-6.29,-43.29,-43.75,0,*5D
1484816549.69,44239,6.38,74020.8,-6.25,-44.07,-44.67,0,*5F
1484816550.95,44240,6.38,74022.8,-6.23,-43.29,-44.07,0,*5A
1484816552.23,44241,6.38,74022.5,-6.23,-43.67,-44.33,0,*56
1484816553.49,44242,6.38,74024.3,-6.23,-43.29,-43.75,0,*5A
1484816554.75,44243,6.38,74012.5,-6.23,-43.29,-43.75,0,*5B
1484816555.98,44244,6.38,74026.0,-6.21,-43.35,-44.01,0,*57
1484816557.25,44245,6.38,74016.0,-6.23,-43.01,-43.67,0,*54
1484816558.48,44246,6.38,74000.5,-6.21,-43.15,-43.67,0,*50
1484816559.72,44247,6.38,74010.5,-6.21,-43.55,-44.07,0,*54
1484816560.93,44248,6.38,74014.8,-6.21,-44.27,-45.13,0,*5D
1484816562.18,44249,6.38,74022.0,-6.23,-43.75,-44.47,0,*5E
1484816563.42,44250,6.38,74020.0,-6.21,-42.83,-43.41,0,*5D
1484816564.65,44251,6.38,74014.5,-6.21,-44.21,-44.99,0,*50
1484816565.91,44252,6.38,74018.8,-6.19,-43.67,-44.27,0,*58
1484816567.17,44253,6.38,74026.3,-6.19,-43.21,-43.61,0,*5E
1484816568.47,44254,6.38,74016.8,-6.19,-42.95,-43.55,0,*50
1484816569.68,44255,6.38,74018.3,-6.17,-43.49,-43.95,0,*53
1484816570.89,44256,6.38,74020.5,-6.17,-43.15,-43.61,0,*52
1484816572.13,44257,6.38,74018.8,-6.17,-43.29,-43.95,0,*57
1484816573.36,44258,6.38,74020.5,-6.17,-43.61,-44.33,0,*5F
1484816574.6,44259,6.38,74012.3,-6.13,-43.29,-43.95,0,*5D
1484816575.81,44260,6.38,74014.5,-6.13,-42.89,-43.49,0,*5D
1484816577.03,44261,6.38,74012.3,-6.13,-43.41,-43.95,0,*58
1484816578.24,44262,6.38,74016.8,-6.13,-44.07,-44.87,0,*5A
1484816579.48,44263,6.38,74014.5,-6.13,-43.75,-44.33,0,*56
1484816580.71,44264,6.38,74012.5,-6.13,-43.75,-44.47,0,*52
1484816581.94,44265,6.38,74014.8,-6.13,-43.95,-44.67,0,*5F
1484816583.17,44266,6.38,74008.3,-6.13,-43.95,-44.73,0,*59
1484816584.39,44267,6.38,74010.3,-6.13,-43.41,-43.95,0,*5E
1484816585.61,44268,6.38,74012.5,-6.13,-43.95,-44.67,0,*52
1484816586.84,44269,6.38,74014.0,-6.13,-44.07,-44.67,0,*5F
1484816588.07,44270,6.38,74008.3,-6.13,-43.21,-43.75,0,*50
1484816589.34,44271,6.38,74014.8,-6.13,-43.09,-43.55,0,*59
1484816590.58,44272,6.38,74018.0,-6.13,-43.29,-43.95,0,*54
1484816591.84,44273,6.38,74016.5,-6.11,-43.09,-43.75,0,*5B
1484816593.08,44274,6.38,74012.5,-6.11,-43.41,-44.07,0,*52
1484816594.36,44275,6.38,74004.8,-6.11,-43.67,-44.13,0,*52
1484816595.61,44276,6.38,74010.0,-6.13,-43.67,-44.47,0,*52
1484816596.84,44277,6.38,74008.3,-6.13,-43.95,-44.67,0,*5C
1484816598.08,44278,6.38,74004.3,-6.13,-44.27,-44.93,0,*56
1484816599.31,44279,6.38,74014.0,-6.13,-44.87,-45.53,0,*50
1484816600.54,44280,6.38,74016.5,-6.13,-44.47,-45.13,0,*5E
1484816601.75,44281,6.38,74018.0,-6.13,-43.49,-43.95,0,*5E
1484816602.97,44282,6.38,74016.3,-6.13,-44.99,-45.61,0,*5A
1484816604.17,44283,6.38,74022.0,-6.13,-43.87,-44.53,0,*53
1484816605.43,44284,6.38,74026.3,-6.11,-43.95,-44.73,0,*57
1484816606.66,44285,6.38,74020.0,-6.13,-43.75,-44.47,0,*5D
1484816607.92,44286,6.38,74012.8,-6.13,-44.33,-44.93,0,*52
1484816609.16,44287,6.38,74012.0,-6.13,-43.95,-44.73,0,*56
1484816610.37,44288,6.38,74016.8,-6.13,-44.07,-44.87,0,*5E
1484816611.63,44289,6.38,74024.8,-6.13,-43.67,-44.33,0,*51
1484816612.89,44290,6.38,74024.3,-6.11,-43.67,-44.27,0,*5E
1484816614.13,44291,6.38,74026.5,-6.13,-43.29,-43.95,0,*59
1484816615.34,44292,6.38,74026.0,-6.13,-43.75,-44.53,0,*5E
1484816616.57,44293,6.38,74026.0,-6.13,-43.95,-44.73,0,*53
1484816617.83,44294,6.38,74020.3,-6.13,-44.13,-44.93,0,*53
1484816619.09,44295,6.38,74020.5,-6.13,-43.55,-44.33,0,*5D
1484816620.32,44296,6.38,74016.3,-6.13,-43.95,-44.67,0,*53
1484816621.56,44297,6.38,74022.0,-6.13,-44.27,-44.93,0,*57
1484816622.8,44298,6.38,74020.0,-6.13,-44.33,-44.99,0,*57
1484816624.03,44299,6.38,74020.0,-6.13,-44.47,-45.21,0,*57
1484816625.27,44300,6.38,74018.8,-6.13,-44.33,-44.99,0,*57
1484816626.47,44301,6.38,74022.8,-6.13,-43.87,-44.53,0,*58
1484816627.7,44302,6.38,74022.3,-6.13,-43.95,-44.73,0,*5A
1484816628.92,44303,6.38,74004.3,-6.13,-44.27,-44.87,0,*5E
1484816630.14,44304,6.38,74008.3,-6.13,-43.41,-43.95,0,*5A
1484816631.35,44305,6.38,74014.8,-6.13,-43.01,-43.49,0,*5E
1484816632.6,44306,6.38,74018.3,-6.13,-43.09,-43.41,0,*5D
1484816633.86,44307,6.38,74024.3,-6.11,-42.83,-43.41,0,*5D
1484816635.07,44308,6.38,74026.3,-6.09,-43.41,-44.07,0,*51
1484816636.29,44309,6.38,74018.8,-6.09,-44.87,-45.53,0,*5D
1484816637.54,44310,6.38,74020.3,-6.11,-44.87,-45.53,0,*5C
1484816638.8,44311,6.38,74012.8,-6.11,-44.13,-44.87,0,*58
1484816640.04,44312,6.38,74012.8,-6.11,-44.27,-44.99,0,*53
1484816641.27,44313,6.38,74016.5,-6.11,-45.41,-46.21,0,*52
1484816642.51,44314,6.38,74018.8,-6.13,-44.73,-45.33,0,*57
1484816643.76,44315,6.38,74012.8,-6.13,-44.27,-44.93,0,*5C
1484816644.96,44316,6.38,74016.0,-6.13,-43.95,-44.53,0,*5D
1484816646.21,44317,6.38,74014.5,-6.13,-44.27,-44.93,0,*5E
1484816647.44,44318,6.38,74022.3,-6.13,-45.13,-45.81,0,*55
1484816648.65,44319,6.38,74018.3,-6.13,-43.95,-44.53,0,*52
1484816649.89,44320,6.38,74018.0,-6.13,-43.67,-44.27,0,*56
1484816651.1,44321,6.38,74022.8,-6.13,-43.41,-44.07,0,*51
1484816652.36,44322,6.38,74018.0,-6.13,-44.33,-44.93,0,*5D
1484816653.57,44323,6.38,74018.5,-6.13,-43.75,-44.27,0,*56
1484816654.81,44324,6.38,74024.0,-6.13,-44.13,-44.87,0,*5C
1484816656.05,44325,6.38,74024.3,-6.13,-44.27,-44.93,0,*5F
1484816657.26,44326,6.38,74020.8,-6.13,-43.95,-44.53,0,*5E
1484816658.49,44327,6.38,74022.3,-6.13,-43.75,-44.33,0,*57
1484816659.73,44328,6.38,74022.5,-6.13,-43.67,-44.27,0,*5E
1484816660.96,44329,6.38,74008.8,-6.13,-44.07,-44.73,0,*5F
1484816662.19,44330,6.38,74014.0,-6.13,-43.87,-44.67,0,*5D
1484816663.44,44331,6.38,74016.3,-6.13,-44.13,-44.73,0,*53
1484816664.68,44332,6.38,74012.0,-6.13,-44.47,-45.33,0,*54
1484816665.91,44333,6.38,74016.3,-6.13,-45.95,-46.69,0,*57
1484816667.15,44334,6.38,74014.0,-6.13,-45.41,-46.15,0,*52
1484816668.36,44335,6.38,74014.5,-6.13,-44.53,-45.41,0,*53
1484816669.6,44336,6.38,74018.0,-6.13,-45.13,-45.73,0,*54
1484816670.83,44337,6.38,74020.8,-6.17,-43.81,-44.41,0,*5C
1484816672.06,44338,6.38,74024.3,-6.17,-43.55,-44.41,0,*5A
1484816673.29,44339,6.38,74018.5,-6.17,-44.41,-45.07,0,*5A
1484816674.51,44340,6.38,74026.8,-6.17,-43.81,-44.41,0,*5C
1484816675.74,44341,6.38,74022.0,-6.17,-43.35,-44.01,0,*56
1484816676.98,44342,6.38,74022.5,-6.13,-43.29,-43.75,0,*58
1484816678.21,44343,6.38,74014.8,-6.13,-43.09,-43.87,0,*56
1484816679.43,44344,6.38,74026.0,-6.13,-43.49,-43.95,0,*56
1484816680.66,44345,6.38,74012.8,-6.13,-43.29,-43.95,0,*51
1484816681.88,44346,6.38,74022.3,-6.13,-43.49,-44.07,0,*58
1484816683.12,44347,6.38,74022.3,-6.13,-43.01,-43.55,0,*55
1484816684.35,44348,6.38,74016.3,-6.13,-43.21,-43.87,0,*57
1484816685.58,44349,6.38,74020.5,-6.13,-43.21,-43.75,0,*5B
1484816686.84,44350,6.38,74016.0,-6.11,-43.09,-43.75,0,*5B
1484816688.08,44351,6.38,74028.3,-6.09,-42.83,-43.41,0,*57
1484816689.29,44352,6.38,74020.0,-6.09,-42.75,-43.35,0,*5E
1484816690.53,44353,6.38,74022.8,-6.09,-43.49,-44.21,0,*53
1484816691.75,44354,6.38,74018.0,-6.09,-43.01,-43.41,0,*59
1484816693.01,44355,6.38,74020.0,-6.09,-44.21,-44.93,0,*55
1484816694.27,44356,6.38,74018.0,-6.11,-43.95,-44.73,0,*59
1484816695.5,44357,6.38,74024.3,-6.09,-43.41,-44.01,0,*5D
1484816696.77,44358,6.38,74022.0,-6.07,-42.83,-43.41,0,*50
1484816698.0,44359,6.38,74024.3,-6.07,-43.41,-44.07,0,*5B
1484816699.23,44360,6.38,74016.5,-6.05,-43.95,-44.73,0,*59
1484816700.49,44361,6.38,74026.3,-6.07,-43.81,-44.61,0,*5C
1484816701.76,44362,6.38,74028.5,-6.07,-43.81,-44.47,0,*5B
1484816702.99,44363,6.38,74030.5,-6.07,-43.87,-44.61,0,*58
1484816704.25,44364,6.38,74024.5,-6.07,-43.49,-44.01,0,*5B
1484816705.5,44365,6.38,74028.8,-6.07,-43.87,-44.47,0,*5A
1484816706.74,44366,6.38,74032.3,-6.07,-43.61,-44.27,0,*57
1484816707.99,44367,6.38,74028.0,-6.05,-43.55,-44.33,0,*56
1484816709.22,44368,6.38,74024.8,-6.05,-44.07,-44.67,0,*58
1484816710.47,44369,6.38,74030.3,-6.05,-43.29,-44.01,0,*52
1484816711.71,44370,6.38,74024.5,-6.05,-42.95,-43.61,0,*5D
1484816712.97,44371,6.38,74020.3,-6.07,-43.35,-44.01,0,*54
1484816714.2,44372,6.38,74028.5,-6.05,-43.61,-44.01,0,*54
1484816715.46,44373,6.38,74024.3,-6.01,-43.09,-43.67,0,*58
1484816716.69,44374,6.38,74030.0,-6.01,-43.29,-43.95,0,*50
1484816717.92,44375,6.38,74026.3,-6.01,-43.29,-44.07,0,*5D
1484816719.19,44376,6.38,74016.5,-5.99,-43.01,-43.55,0,*56
1484816720.39,44377,6.38,74026.8,-6.01,-43.35,-43.95,0,*5E
1484816721.62,44378,6.38,74016.5,-6.01,-43.95,-44.73,0,*54
1484816722.87,44379,6.38,74014.3,-5.99,-43.49,-44.13,0,*50
1484816724.07,44380,6.38,74024.8,-6.01,-43.87,-44.53,0,*52
1484816725.32,44381,6.38,74022.5,-5.99,-43.21,-44.07,0,*5C
1484816726.57,44382,6.38,74022.8,-6.01,-44.13,-44.93,0,*56
1484816727.82,44383,6.38,74022.5,-5.99,-43.75,-44.47,0,*5B
1484816729.07,44384,6.38,74026.3,-6.01,-43.67,-44.33,0,*5E
1484816730.31,44385,6.38,74016.8,-5.99,-43.87,-44.67,0,*52
1484816731.54,44386,6.38,74014.5,-6.01,-43.55,-44.27,0,*58
1484816732.77,44387,6.38,74016.8,-5.99,-43.49,-44.07,0,*54
1484816733.99,44388,6.38,74012.0,-5.97,-43.29,-43.87,0,*5C
1484816735.21,44389,6.38,74006.0,-5.99,-43.87,-44.53,0,*59
1484816736.49,44390,6.38,74008.8,-5.99,-44.33,-44.93,0,*55
1484816737.74,44391,6.38,74010.0,-5.99,-44.07,-44.67,0,*58
1484816739.0,44392,6.38,74002.3,-6.01,-44.93,-45.81,0,*5D
1484816740.2,44393,6.38,74006.3,-6.01,-45.41,-45.95,0,*57
1484816741.43,44394,6.38,74002.8,-6.01,-44.47,-45.13,0,*59
1484816742.63,44395,6.38,74004.5,-6.01,-45.33,-46.01,0,*5A
1484816743.85,44396,6.38,74006.5,-6.01,-44.99,-45.53,0,*5C
1484816745.08,44397,6.38,74010.0,-6.07,-44.61,-45.13,0,*58
1484816746.31,44398,6.38,74010.0,-6.05,-44.53,-45.07,0,*51
1484816747.54,44399,6.38,74008.3,-6.05,-44.13,-44.79,0,*5C
1484816748.76,44400,6.38,74008.3,-6.05,-44.41,-45.07,0,*54
1484816750.0,44401,6.38,74004.8,-6.07,-43.49,-44.07,0,*59
1484816751.23,44402,6.38,74008.3,-6.05,-44.33,-44.99,0,*55
1484816752.46,44403,6.38,74008.0,-6.05,-44.61,-45.27,0,*57
1484816753.72,44404,6.38,74008.5,-6.07,-44.67,-45.33,0,*51
1484816754.95,44405,6.38,74012.8,-6.05,-44.41,-45.07,0,*51
1484816756.18,44406,6.44,74012.5,-6.07,-44.41,-45.13,0,*55
1484816757.43,44407,6.38,74014.3,-6.07,-44.87,-45.53,0,*5A
1484816758.7,44408,6.38,74012.3,-6.07,-44.27,-44.93,0,*52
1484816759.94,44409,6.38,74012.0,-6.07,-43.87,-44.47,0,*57
1484816761.18,44410,6.38,74008.8,-6.07,-44.07,-44.79,0,*5D
1484816762.41,44411,6.38,74022.8,-6.05,-43.61,-44.13,0,*55
1484816763.67,44412,6.38,74018.5,-6.07,-43.41,-44.21,0,*57
1484816764.93,44413,6.38,74022.0,-6.07,-43.41,-44.01,0,*54
1484816766.17,44414,6.38,74024.0,-6.05,-43.29,-43.95,0,*55
1484816767.42,44415,6.38,74014.8,-6.07,-43.35,-44.01,0,*51
1484816768.63,44416,6.38,74018.8,-6.05,-43.35,-43.95,0,*5A
1484816769.86,44417,6.38,74018.0,-6.01,-43.75,-44.47,0,*53
1484816771.09,44418,6.38,74016.3,-5.99,-43.35,-43.95,0,*52
1484816772.34,44419,6.38,74022.5,-5.99,-42.83,-43.35,0,*55
1484816773.57,44420,6.38,74020.3,-5.99,-42.89,-43.35,0,*55
1484816774.8,44421,6.38,74022.0,-6.01,-43.55,-44.27,0,*52
1484816776.05,44422,6.38,74026.5,-5.99,-43.49,-44.13,0,*59
1484816777.31,44423,6.44,74024.3,-5.99,-42.83,-43.35,0,*5C
1484816778.53,44424,6.38,74016.3,-5.99,-43.35,-44.07,0,*51
1484816779.79,44425,6.38,74014.0,-5.99,-43.29,-43.95,0,*51
1484816781.0,44426,6.38,74016.8,-5.97,-43.61,-44.27,0,*5E
1484816782.22,44427,6.38,74016.8,-5.97,-43.29,-43.87,0,*5E
1484816783.49,44428,6.38,74018.5,-5.95,-42.95,-43.29,0,*51
1484816784.7,44429,6.38,74022.8,-5.97,-43.01,-43.61,0,*52
1484816785.94,44430,6.38,74016.3,-5.97,-43.01,-43.67,0,*5C
1484816787.17,44431,6.38,74020.5,-5.95,-43.15,-43.81,0,*52
1484816788.43,44432,6.38,74022.3,-5.95,-43.29,-43.81,0,*5E
1484816789.67,44433,6.38,74012.3,-5.95,-43.49,-44.21,0,*54
1484816790.91,44434,6.38,74018.8,-5.95,-43.41,-44.21,0,*5B
1484816792.14,44435,6.38,74026.5,-5.95,-43.81,-44.61,0,*52
1484816793.35,44436,6.38,74028.5,-5.91,-43.75,-44.41,0,*5C
1484816794.6,44437,6.38,74024.8,-5.93,-43.01,-43.61,0,*59
1484816795.82,44438,6.38,74020.3,-5.91,-43.95,-44.67,0,*58
1484816797.06,44439,6.38,74020.0,-5.93,-43.41,-43.87,0,*5B
1484816798.32,44440,6.38,74028.0,-5.93,-43.41,-44.01,0,*5C
1484816799.59,44441,6.38,74028.0,-5.93,-43.21,-43.81,0,*54
1484816800.83,44442,6.38,74022.8,-5.93,-43.41,-43.87,0,*57
1484816802.09,44443,6.38,74026.5,-5.93,-43.41,-44.01,0,*5F
1484816803.32,44444,6.38,74020.0,-5.91,-43.41,-44.01,0,*5A
1484816804.55,44445,6.38,74026.0,-5.91,-43.81,-44.41,0,*53
1484816805.78,44446,6.38,74030.0,-5.91,-43.35,-44.01,0,*5B
1484816807.01,44447,6.38,74016.0,-5.91,-43.35,-43.81,0,*55
1484816808.27,44448,6.38,74022.8,-5.91,-43.55,-44.13,0,*50
1484816809.48,44449,6.38,74022.8,-5.91,-43.15,-43.75,0,*52
1484816810.74,44450,6.38,74022.0,-5.89,-43.01,-43.67,0,*55
1484816811.98,44451,6.38,74024.5,-5.89,-43.35,-43.95,0,*5E
1484816813.19,44452,6.38,74020.3,-5.91,-42.75,-43.15,0,*59
1484816814.43,44453,6.38,74022.0,-5.87,-42.69,-43.35,0,*50
1484816815.66,44454,6.44,74028.0,-5.89,-42.63,-43.15,0,*51
1484816816.9,44455,6.38,74024.0,-5.87,-43.01,-43.67,0,*5E
1484816818.17,44456,6.38,74026.8,-5.87,-43.09,-43.67,0,*55
1484816819.37,44457,6.38,74020.5,-5.87,-43.15,-43.75,0,*5A
1484816820.64,44458,6.38,74030.3,-5.85,-43.21,-43.81,0,*5B
1484816821.9,44459,6.38,74026.0,-5.85,-42.75,-43.29,0,*58
1484816823.13,44460,6.38,74026.5,-5.85,-42.75,-43.41,0,*5C
1484816824.37,44461,6.38,74016.8,-5.85,-43.61,-44.27,0,*5E
1484816825.62,44462,6.38,74020.5,-5.83,-43.29,-44.01,0,*53
1484816826.88,44463,6.38,74026.0,-5.85,-42.83,-43.41,0,*56
1484816828.09,44464,6.38,74022.8,-5.83,-42.75,-43.41,0,*5E
1484816829.35,44465,6.38,74022.8,-5.79,-43.55,-44.13,0,*59
1484816830.58,44466,6.38,74018.8,-5.83,-43.49,-44.21,0,*53
1484816831.8,44467,6.38,74018.5,-5.83,-43.01,-43.49,0,*57
1484816833.01,44468,6.38,74014.8,-5.79,-43.01,-43.75,0,*52
1484816834.27,44469,6.38,74022.3,-5.79,-43.55,-44.21,0,*54
1484816835.5,44470,6.38,74030.0,-5.79,-43.35,-44.13,0,*5B
1484816836.74,44471,6.44,74028.3,-5.79,-43.41,-44.13,0,*59
1484816837.97,44472,6.38,74026.3,-5.79,-43.61,-44.33,0,*5A
1484816839.23,44473,6.38,74028.0,-5.77,-43.41,-44.21,0,*54
1484816840.49,44474,6.38,74024.0,-5.79,-43.55,-44.33,0,*5B
1484816841.74,44475,6.38,74020.0,-5.79,-43.21,-44.01,0,*58
1484816842.98,44476,6.38,74024.5,-5.79,-43.41,-44.01,0,*5D
1484816844.21,44477,6.44,74026.5,-5.79,-43.35,-44.01,0,*5F
1484816845.44,44478,6.38,74024.5,-5.79,-43.21,-43.95,0,*5F
1484816846.71,44479,6.38,74026.0,-5.77,-42.95,-43.61,0,*55
1484816847.94,44480,6.38,74022.3,-5.77,-42.89,-43.35,0,*5F
1484816849.19,44481,6.38,74030.3,-5.77,-43.15,-43.81,0,*55
1484816850.45,44482,6.38,74030.3,-5.77,-43.41,-44.01,0,*58
1484816851.73,44483,6.44,74022.8,-5.77,-43.21,-44.01,0,*5F
1484816852.98,44484,6.44,74022.3,-5.77,-43.21,-43.95,0,*52
1484816854.22,44485,6.38,74022.3,-5.77,-43.01,-43.61,0,*5A
1484816855.48,44486,6.38,74020.5,-5.77,-44.13,-44.79,0,*53
1484816856.73,44487,6.38,74022.0,-5.79,-44.01,-44.47,0,*52
1484816858.02,44488,6.38,74022.0,-5.77,-43.55,-44.21,0,*55
1484816859.25,44489,6.38,74016.8,-5.75,-44.07,-44.73,0,*51
1484816860.52,44490,6.44,74020.5,-5.77,-43.81,-44.47,0,*55
1484816861.78,44491,6.38,74018.3,-5.77,-43.75,-44.33,0,*5C
1484816863.03,44492,6.38,74024.8,-5.79,-43.21,-43.81,0,*5E
1484816864.31,44493,6.38,74030.0,-5.77,-43.21,-44.01,0,*5E
1484816865.56,44494,6.38,74030.0,-5.77,-44.13,-44.79,0,*50
1484816866.83,44495,6.44,74024.8,-5.77,-44.21,-44.87,0,*51
1484816868.1,44496,6.44,74028.8,-5.77,-44.01,-44.67,0,*5E
1484816869.33,44497,6.38,74028.5,-5.79,-44.01,-44.61,0,*57
1484816870.6,44498,6.38,74028.3,-5.77,-43.41,-44.21,0,*51
1484816871.83,44499,6.38,74028.5,-5.77,-43.95,-44.61,0,*5D
1484816873.05,44500,6.44,74028.0,-5.77,-43.95,-44.61,0,*5C
1484816874.32,44501,6.38,74020.3,-5.77,-43.75,-44.21,0,*57
1484816875.6,44502,6.38,74012.8,-5.77,-43.55,-44.21,0,*56
1484816876.85,44503,6.44,74020.5,-5.77,-43.15,-43.81,0,*5E
1484816878.08,44504,6.38,74018.3,-5.77,-43.95,-44.41,0,*5A
1484816879.33,44505,6.44,74022.0,-5.77,-43.35,-44.13,0,*56
1484816880.59,44506,6.38,74026.5,-5.77,-43.75,-44.33,0,*53
1484816881.85,44507,6.38,74030.0,-5.77,-43.41,-44.21,0,*56
1484816883.11,44508,6.38,74024.3,-5.77,-44.21,-44.79,0,*55
1484816884.32,44509,6.38,74016.5,-5.75,-43.49,-44.07,0,*56
1484816885.56,44510,6.38,74008.8,-5.75,-43.49,-44.13,0,*5B
1484816886.76,44511,6.38,74024.5,-5.75,-43.95,-44.61,0,*5E
1484816888.0,44512,6.38,74028.8,-5.75,-44.73,-45.41,0,*51
1484816889.26,44513,6.38,74024.3,-5.77,-44.01,-44.61,0,*54
1484816890.5,44514,6.44,74034.5,-5.77,-43.15,-43.81,0,*58
1484816891.74,44515,6.38,74028.5,-5.75,-43.75,-44.33,0,*53
1484816893.0,44516,6.38,74026.5,-5.77,-44.21,-44.79,0,*5A
1484816894.28,44517,6.38,74028.3,-5.77,-44.01,-44.67,0,*56
1484816895.51,44518,6.44,74026.5,-5.77,-43.61,-44.41,0,*5C
1484816896.72,44519,6.44,74026.3,-5.75,-43.35,-44.07,0,*5C
1484816897.98,44520,6.44,74030.5,-5.77,-43.61,-44.21,0,*51
1484816899.24,44521,6.38,74030.0,-5.77,-43.35,-44.21,0,*51
1484816900.53,44522,6.44,74026.8,-5.77,-42.95,-43.55,0,*5D
1484816901.79,44523,6.38,74018.3,-5.75,-42.95,-43.55,0,*5E
1484816903.05,44524,6.44,74022.5,-5.75,-43.55,-44.33,0,*53
1484816904.31,44525,6.38,74020.5,-5.75,-43.55,-44.13,0,*50